Estación municipal de Les Masies de Roda (Osona, Ter)

Consulta los datos en tiempo real de la estación municipal de Les Masies de Roda





Hora UTC 15:15
Temperatura 35.9 ºC
Suelo 15 cm 40.8 ºC
Humedad 25.7 %
Presión 1020.6 hPa
Pluja 0.0 mm
Velocidad viento 15.7 km/h
Dirección viento SSW
Radiación solar 81.1 W/m²

Datos diarios 2026-09-05



Hora UTC (invierno +1h; verano +2h)
Temperatura (ºC) Humedad (%) Presión (hPa) Velocidad viento (km/h) Precipitación (mm) Radiación solar (W/m²)
Hora UTC Aire Suelo 15 cm Humedad Presión Vel. Dir. Vel. Max Dir. Intent. máx 5 min. Rad. Sol.
00:05 20.1 17.5 83.1 1021.4 0.0 NNE 0.0 NNW 0.0 19.2
00:10 20.1 17.3 83.9 1021.6 0.0 NNE 0.0 NNW 0.0 19.1
00:15 20.2 17.2 83.1 1021.4 1.1 E 3.9 E 0.0 17.4
00:20 19.9 17.1 83.7 1021.6 0.0 NNE 0.0 E 0.0 17.4
00:25 19.8 17.1 84.5 1021.5 0.0 NNE 0.0 E 0.0 17.2
00:30 19.8 17.0 84.4 1021.4 0.9 ENE 3.2 E 0.0 18.6
00:35 19.8 16.9 83.8 1021.5 0.8 ENE 2.8 ENE 0.0 16.1
00:40 19.7 16.9 83.8 1021.4 0.1 ENE 1.8 ENE 0.0 15.6
00:45 19.6 16.8 84.9 1021.5 0.5 ENE 2.8 ENE 0.0 12.9
00:50 19.5 16.8 84.3 1021.3 1.7 N 2.8 NNW 0.0 13.7
00:55 19.5 16.7 85.1 1021.5 0.2 N 1.8 N 0.0 14.1
01:00 19.7 16.7 83.7 1021.4 0.0 NNE 0.0 N 0.0 13.9
01:05 19.5 16.6 84.2 1021.5 0.0 NNE 0.0 N 0.0 16.0
01:10 19.2 16.5 86.0 1021.5 1.1 NNW 2.5 NW 0.0 16.8
01:15 19.3 16.5 85.9 1021.4 0.0 NNE 0.0 NNE 0.0 16.1
01:20 19.2 16.5 85.6 1021.6 0.0 NNE 0.0 N 0.0 15.9
01:25 19.1 16.4 85.5 1021.4 0.0 NNE 0.0 N 0.0 14.5
01:30 18.9 16.3 86.6 1021.6 0.0 NNE 0.0 N 0.0 12.7
01:35 18.8 16.2 86.4 1021.4 0.0 NNE 0.0 N 0.0 11.0
01:40 18.7 16.2 87.3 1021.7 0.0 NNE 0.0 N 0.0 8.3
01:45 18.7 16.1 87.3 1021.4 0.0 NNE 0.0 N 0.0 6.8
01:50 18.7 16.1 86.8 1021.6 0.0 NNE 0.0 N 0.0 6.2
01:55 18.6 16.0 86.1 1021.5 0.0 NNE 0.0 ENE 0.0 5.7
02:00 18.4 15.9 87.5 1021.6 0.0 NNE 0.0 N 0.0 2.9
02:05 18.3 15.8 88.1 1021.6 0.0 NNE 0.0 N 0.0 0.9
02:10 18.2 15.7 88.5 1021.6 0.0 NNE 0.0 N 0.0 0.2
02:15 18.1 15.7 88.7 1021.6 1.4 ENE 2.8 ENE 0.0 0.3
02:20 18.2 15.6 88.9 1021.4 0.8 NE 2.8 NNE 0.0 0.1
02:25 18.1 15.7 88.5 1021.6 0.1 NE 1.8 NE 0.0 0.1
02:30 18.0 15.6 89.1 1021.4 0.6 NW 2.5 NW 0.0 0.1
02:35 18.0 15.6 89.7 1021.6 0.1 NW 1.4 NW 0.0 0.1
02:40 18.1 15.5 89.5 1021.4 0.0 NNE 0.0 NW 0.0 0.1
02:45 18.2 15.5 89.6 1021.6 0.0 NNE 0.0 NW 0.0 192.2
02:50 18.1 15.6 88.6 1021.4 0.0 NNE 0.0 NW 0.0 230.4
02:55 18.0 15.6 89.3 1021.6 0.0 NNE 0.0 NW 0.0 234.9
03:00 17.9 15.6 90.5 1021.5 0.0 NNE 0.0 NW 0.0 258.1
03:05 18.0 15.6 89.9 1021.6 0.0 NNE 0.0 NW 0.0 239.2
03:10 17.9 15.6 89.1 1021.5 0.0 NNE 0.0 NW 0.0 243.4
03:15 17.7 15.5 90.2 1021.6 1.0 N 3.2 N 0.0 250.5
03:20 17.9 15.5 90.4 1021.6 0.1 NNE 2.1 NNE 0.0 244.9
03:25 17.8 15.5 89.9 1021.6 0.0 NNE 0.0 NNE 0.0 243.9
03:30 17.6 15.4 89.6 1021.8 0.7 ENE 3.2 ENE 0.0 241.8
03:35 17.6 15.4 90.7 1021.6 0.0 NNE 0.0 ENE 0.0 246.4
03:40 17.7 15.4 91.2 1021.7 0.1 NE 1.8 NE 0.0 247.7
03:45 17.8 15.4 90.0 1021.5 0.7 ESE 2.8 E 0.0 241.8
03:50 17.7 15.4 90.4 1021.7 0.0 ENE 1.4 ENE 0.0 248.0
03:55 17.7 15.4 90.7 1021.5 0.2 ENE 1.8 ENE 0.0 241.1
04:00 17.6 15.4 90.3 1021.7 0.5 WNW 2.8 WNW 0.0 240.7
04:05 17.4 15.3 91.1 1021.5 1.2 WNW 2.8 NW 0.0 243.4
04:10 17.5 15.3 91.7 1021.7 0.3 NNW 2.5 NNW 0.0 247.8
04:15 17.6 15.2 91.7 1021.5 0.0 NNE 0.0 NNE 0.0 251.2
04:20 17.8 15.2 90.6 1021.7 0.8 WNW 3.2 WNW 0.0 252.5
04:25 17.5 15.2 89.3 1021.6 1.5 WNW 2.8 WNW 0.0 251.5
04:30 17.3 15.1 91.3 1021.7 1.7 NW 3.2 NW 0.0 256.1
04:35 17.3 15.0 92.0 1021.7 0.9 NNE 2.1 NNW 0.0 260.2
04:40 17.5 14.9 91.9 1021.7 0.0 NNE 0.0 NE 0.0 252.5
04:45 17.6 15.1 91.5 1021.8 0.2 NNE 1.8 NNE 0.0 248.5
04:50 17.4 15.2 90.4 1021.8 0.2 NNE 1.8 NNE 0.0 245.2
04:55 17.2 15.1 90.8 1021.8 0.0 NNE 0.0 NNE 0.0 252.9
05:00 17.0 14.9 91.3 1021.8 0.0 NNE 0.0 NNE 0.0 246.6
05:05 16.9 14.8 92.0 1021.9 0.0 NNE 0.0 NNE 0.0 245.5
05:10 16.9 14.8 92.7 1021.8 0.0 NNE 0.0 NNE 0.0 249.5
05:15 16.9 14.8 92.5 1022.0 0.0 NNE 0.0 NNE 0.0 252.3
05:20 17.0 14.7 93.5 1021.9 0.0 NNE 0.0 NNE 0.0 250.6
05:25 17.0 14.7 92.5 1022.1 0.0 NNE 0.0 NNE 0.0 249.9
05:30 16.7 14.7 92.7 1021.9 0.0 NNE 0.0 NNE 0.0 249.4
05:35 16.7 14.7 93.3 1022.0 0.0 NNE 0.0 NNE 0.0 249.6
05:40 16.7 14.7 93.6 1021.9 0.0 NNE 0.0 NNE 0.0 253.5
05:45 16.7 14.8 93.2 1022.2 0.0 NNE 0.0 NNE 0.0 262.0
05:50 16.8 14.9 93.6 1022.0 0.0 NNE 0.0 NNE 0.0 257.4
05:55 16.9 15.0 93.6 1022.2 0.0 NNE 0.0 NNE 0.0 253.3
06:00 16.8 15.1 93.0 1022.1 2.1 W 3.9 W 0.0 257.2
06:05 16.9 15.1 93.8 1022.2 0.0 NNE 0.0 W 0.0 274.4
06:10 17.2 15.3 94.3 1022.2 1.4 WNW 3.5 WNW 0.0 271.0
06:15 17.0 15.5 93.0 1022.4 1.0 NW 3.5 NW 0.0 262.4
06:20 17.0 15.7 92.9 1022.2 0.0 NNE 0.0 NNW 0.0 261.2
06:25 17.3 15.8 93.1 1022.4 0.0 NNE 0.0 NE 0.0 260.8
06:30 17.6 16.2 92.4 1022.3 0.0 NNE 0.0 NE 0.0 263.5
06:35 17.7 16.5 91.9 1022.5 1.8 WNW 2.8 WNW 0.0 282.8
06:40 18.0 16.8 91.5 1022.5 2.1 WNW 3.5 W 0.0 212.6
06:45 18.3 17.2 91.2 1022.6 1.2 W 3.5 W 0.0 172.6
06:50 18.7 17.7 89.5 1022.6 0.0 NNE 0.0 W 0.0 13.3
06:55 19.2 18.3 86.5 1022.6 0.5 WNW 2.5 WNW 0.0 21.2
07:00 19.8 18.9 82.5 1022.8 0.0 NNE 0.0 WNW 0.0 27.5
07:05 20.3 19.3 80.5 1022.6 0.0 NNE 0.0 ENE 0.0 32.0
07:10 20.8 19.9 77.0 1022.8 1.7 SE 3.5 SE 0.0 28.7
07:15 21.2 20.4 74.6 1022.6 0.4 S 2.8 SE 0.0 37.5
07:20 21.3 20.9 75.8 1022.8 1.9 W 3.5 WSW 0.0 42.0
07:25 21.4 21.6 74.3 1022.8 0.5 S 2.8 SSE 0.0 45.1
07:30 22.0 22.4 72.1 1022.7 0.0 NNE 0.0 SSE 0.0 48.0
07:35 22.4 23.2 69.8 1022.9 1.4 NNE 4.6 NNE 0.0 50.4
07:40 22.9 23.8 68.0 1022.7 0.3 SSW 3.5 SSW 0.0 54.4
07:45 23.3 24.5 66.5 1022.9 1.8 S 4.2 SSW 0.0 56.7
07:50 23.4 25.0 67.8 1022.7 3.0 SW 5.0 SSW 0.0 58.2
07:55 23.1 25.6 68.2 1022.8 3.3 WSW 5.3 WSW 0.0 62.2
08:00 23.5 26.2 67.5 1022.8 3.2 SSW 5.3 SW 0.0 65.1
08:05 24.0 26.6 65.0 1022.7 1.7 SSE 3.5 S 0.0 71.9
08:10 24.4 27.1 63.4 1022.9 1.6 SSW 4.2 S 0.0 71.6
08:15 24.6 27.5 63.4 1022.7 2.9 S 5.7 SSW 0.0 76.2
08:20 24.6 28.0 62.2 1022.8 2.6 E 4.6 E 0.0 74.7
08:25 24.7 28.4 61.6 1022.7 1.5 SE 4.6 SE 0.0 78.2
08:30 25.1 28.8 61.2 1022.7 1.7 SSE 3.9 SSW 0.0 89.4
08:35 25.2 29.1 61.0 1023.0 0.7 NNE 2.8 NE 0.0 88.7
08:40 25.1 29.2 61.3 1022.7 0.8 SE 4.2 SE 0.0 116.6
08:45 26.1 29.8 59.1 1022.8 2.8 SW 5.7 SW 0.0 173.9
08:50 26.6 30.6 58.5 1022.8 3.3 S 6.4 S 0.0 198.2
08:55 26.8 31.3 55.5 1022.7 1.6 ESE 4.6 SSW 0.0 174.3
09:00 27.2 31.9 55.6 1022.9 3.0 SSE 7.1 ESE 0.0 115.5
09:05 27.0 32.4 54.7 1022.9 2.7 ESE 5.7 SE 0.0 154.7
09:10 27.3 32.8 54.7 1022.7 3.0 SSE 6.4 S 0.0 197.1
09:15 27.8 33.1 53.7 1022.8 2.4 SW 4.6 SSW 0.0 207.3
09:20 27.6 33.2 53.3 1022.9 4.4 SE 6.4 S 0.0 100.3
09:25 27.9 33.5 52.3 1022.8 1.5 ENE 5.0 ESE 0.0 66.4
09:30 28.3 33.8 53.2 1022.7 1.8 WSW 4.2 WNW 0.0 74.9
09:35 29.3 34.6 49.7 1022.8 1.8 SW 5.0 SW 0.0 87.0
09:40 29.1 35.0 50.2 1022.8 3.4 WSW 6.0 WSW 0.0 84.7
09:45 29.3 35.4 49.6 1022.5 2.8 SW 6.4 SSE 0.0 87.4
09:50 29.8 35.9 46.8 1022.5 2.0 ESE 5.0 SSE 0.0 101.3
09:55 30.0 36.2 47.7 1022.6 3.4 S 5.7 S 0.0 565.3
10:00 31.0 36.9 45.7 1022.7 1.9 S 4.6 S 0.0 645.0
10:05 31.8 37.8 42.8 1022.5 3.8 SSW 8.1 SSW 0.0 641.4
10:10 32.0 38.2 43.2 1022.3 3.9 SW 6.4 SSW 0.0 633.5
10:15 32.5 38.6 37.4 1022.2 3.0 SSE 8.5 SSE 0.0 624.9
10:20 32.4 39.0 34.8 1022.3 3.5 SE 6.4 SE 0.0 324.7
10:25 32.5 39.5 36.5 1022.4 3.1 S 7.1 SSW 0.0 107.0
10:30 32.9 39.9 35.1 1022.4 4.5 SSE 11.3 SSE 0.0 106.4
10:35 33.3 40.1 35.7 1022.2 2.9 S 6.7 S 0.0 101.1
10:40 33.7 40.6 33.2 1022.0 1.0 NNE 3.2 ESE 0.0 98.7
10:45 33.6 40.7 35.1 1021.9 2.4 WSW 6.4 W 0.0 93.0
10:50 34.3 41.1 30.9 1021.8 3.2 S 6.7 SSE 0.0 90.5
10:55 34.8 41.6 31.8 1021.8 4.4 S 11.7 S 0.0 87.2
11:00 35.2 42.1 29.9 1021.9 4.4 SSW 13.1 SSE 0.0 113.1
11:05 34.8 42.3 28.6 1021.9 3.8 SE 8.5 SE 0.0 117.9
11:10 34.7 42.3 28.3 1021.8 5.3 ESE 10.3 E 0.0 117.5
11:15 35.1 42.5 28.5 1021.8 2.0 N 5.7 NNE 0.0 124.4
11:20 35.6 42.9 29.3 1021.7 2.3 WNW 7.8 WNW 0.0 128.7
11:25 36.0 43.3 29.9 1021.7 6.8 WNW 12.4 NW 0.0 132.2
11:30 35.5 43.1 28.7 1021.6 5.0 WNW 11.0 WNW 0.0 132.3
11:35 35.4 42.7 27.8 1021.6 5.4 SE 11.7 SSE 0.0 140.5
11:40 36.1 42.9 23.9 1021.6 7.8 ESE 16.2 E 0.0 139.9
11:45 36.4 42.9 24.8 1021.5 8.6 S 19.8 SSE 0.0 133.3
11:50 36.8 43.3 24.4 1021.4 10.7 S 18.7 SSE 0.0 131.5
11:55 36.7 43.4 23.8 1021.3 7.6 SSE 13.4 SE 0.0 123.0
12:00 36.7 43.3 24.1 1021.2 13.6 S 24.7 S 0.0 127.2
12:05 36.8 42.9 23.8 1021.2 14.5 SSE 23.7 SSE 0.0 134.4
12:10 36.8 42.8 23.6 1021.1 14.7 SSE 28.6 SSE 0.0 129.7
12:15 36.9 42.7 23.9 1021.0 13.5 S 23.7 S 0.0 131.7
12:20 37.2 42.7 23.5 1020.9 14.4 S 26.5 SSE 0.0 123.0
12:25 37.3 42.8 23.6 1020.9 14.6 S 24.0 S 0.0 123.9
12:30 37.3 43.1 23.4 1020.8 18.5 S 32.1 SSE 0.0 121.5
12:35 37.2 42.8 23.4 1020.8 17.3 S 29.3 S 0.0 129.7
12:40 37.0 42.8 23.6 1020.8 16.5 S 31.1 SSE 0.0 127.1
12:45 37.3 43.0 23.3 1020.8 16.7 S 29.7 SE 0.0 122.3
12:50 36.9 42.8 23.5 1020.8 16.5 SSE 25.4 SSE 0.0 122.4
12:55 37.0 42.6 23.5 1020.8 15.9 S 28.6 S 0.0 122.9
13:00 37.2 42.5 23.4 1020.8 16.2 S 27.5 SSE 0.0 118.3
13:05 37.2 42.6 23.8 1020.9 15.0 SSW 26.1 S 0.0 115.7
13:10 37.2 43.0 23.4 1020.9 17.9 S 28.2 SSW 0.0 110.7
13:15 37.0 42.8 24.5 1020.9 14.8 SSW 26.1 SSW 0.0 109.5
13:20 37.2 42.9 24.1 1020.9 14.4 SSW 25.1 S 0.0 107.8
13:25 36.9 43.0 24.1 1020.9 15.8 S 25.4 S 0.0 105.4
13:30 36.9 42.7 24.4 1020.9 15.3 SSW 28.2 SSW 0.0 103.9
13:35 37.1 43.1 24.2 1020.9 13.3 S 24.4 S 0.0 104.1
13:40 36.9 42.9 24.4 1020.8 18.6 S 31.4 SSW 0.0 101.6
13:45 36.8 42.6 24.5 1020.8 19.0 SSW 29.3 SSW 0.0 97.7
13:50 36.8 42.5 24.6 1020.7 15.0 SSW 31.1 S 0.0 90.2
13:55 37.1 42.4 24.7 1020.7 14.0 S 31.8 S 0.0 98.4
14:00 37.2 42.7 24.1 1020.6 17.2 SSW 32.5 SW 0.0 96.9
14:05 36.9 42.8 24.1 1020.6 16.6 SSW 31.1 S 0.0 96.6
14:10 36.8 42.9 24.4 1020.5 14.3 S 24.0 SSE 0.0 94.5
14:15 36.8 42.7 24.5 1020.5 16.0 S 35.3 SSW 0.0 89.4
14:20 36.7 42.4 24.3 1020.5 16.5 SSW 38.1 S 0.0 85.0
14:25 36.7 42.4 24.7 1020.5 12.9 SSW 21.9 SSW 0.0 85.5
14:30 36.6 42.4 24.5 1020.4 17.5 SSW 31.8 SSW 0.0 84.6
14:35 36.3 42.0 24.7 1020.5 20.0 S 34.9 SSW 0.0 80.1
14:40 36.0 41.4 25.1 1020.5 18.4 S 32.8 SSW 0.0 76.3
14:45 35.8 40.7 25.3 1020.4 18.2 S 33.9 SSW 0.0 76.4
14:50 35.9 40.5 25.7 1020.4 16.0 SSW 33.5 S 0.0 81.5
14:55 36.1 40.7 25.7 1020.5 16.0 SSW 29.3 SSW 0.0 83.2
15:00 35.9 40.8 25.4 1020.5 18.0 SSW 36.7 S 0.0 78.2
15:05 35.6 40.6 25.7 1020.5 18.8 SSW 33.2 S 0.0 75.0
15:10 35.8 40.7 25.8 1020.6 15.6 SSW 26.5 SSW 0.0 84.1
15:15 35.9 40.8 25.7 1020.6 15.7 SSW 25.8 SSW 0.0 81.1
Máxima 37.3 43.4 94.3 1023.0 20.0 S 38.1 S 0.0 645.0
Mínima 16.7 14.7 23.3 1020.4
Total 0.0